Regional Weather Roundup
Issued by NWS Sioux Falls, SD

Home | Current Version | Previous Version | Text Only | Print | Product List | Glossary On
Versions: 1 2 3 4 5 6 7 8 9 10 11 12 13 14 15 16 17 18 19 20 21 22 23 24 25 26 27 28 29 30 31 32 33 34 35 36 37 38 39 40 41 42 43 44 45 46 47 48 49 50
000
ASUS43 KFSD 222102
RWRFSD

WEATHER ROUNDUP FOR SE SOUTH DAKOTA/SW MINNESOTA/NW IOWA
NATIONAL WEATHER SERVICE SIOUX FALLS SD
400 PM CDT TUE JUL 22 2014

NOTE: "FAIR" INDICATES FEW OR NO CLOUDS BELOW 12,000 FEET WITH NO
SIGNIFICANT WEATHER AND OR OBSTRUCTIONS TO VISIBILITY.


SDZ038>040-050-052>070-222200-
SOUTHEAST SOUTH DAKOTA

CITY           SKY/WX    TMP DP  RH WIND       PRES   REMARKS
CHAMBERLAIN    SUNNY     85  57  38 NE8       30.19R
HURON          SUNNY     82  59  45 NE9G17    30.17R
MADISON        FAIR      77  59  53 NE10      30.19R
MITCHELL       SUNNY     84  59  42 NE13      30.18R
SIOUX FALLS    MOSUNNY   81  61  50 NE9       30.16R
WINNER         FAIR      86  61  42 VRB3      30.20S
$$

MNZ071-072-080-081-089-090-097-098-222200-
SOUTHWEST MINNESOTA

CITY           SKY/WX    TMP DP  RH WIND       PRES   REMARKS
FAIRMONT       SUNNY     82  63  51 NW12      30.10R
JACKSON        MOSUNNY   81  61  50 N8        30.13S
LUVERNE        SUNNY     82  57  42 N6        30.16R
MARSHALL       MOSUNNY   79  57  47 N17       30.13R
MONTEVIDEO     MOSUNNY   81  55  41 NE14G21     N/A
PIPESTONE      SUNNY     79  57  47 N8G17     30.18R
REDWOOD FALLS  SUNNY     84  56  38 NW13G20   30.10R
TRACY          MOSUNNY   80  59  49 N13G18    30.14S
WINDOM         SUNNY     82  59  44 N14       30.13R
WORTHINGTON    SUNNY     79  61  53 N10       30.17R
$$

IAZ001>003-012>014-020>022-031-032-NEZ013-014-SDZ071-222200-
NORTHWEST IOWA

CITY           SKY/WX    TMP DP  RH WIND       PRES   REMARKS
CHEROKEE       SUNNY     82  67  60 N10G17    30.14R
DENISON        MOSUNNY   82  72  69 N12       30.09R
ESTHERVILLE    SUNNY     82  64  54 N15G21    30.11R
LE MARS        MOSUNNY   81  68  65 N9        30.13F
ORANGE CITY    MOSUNNY   82  63  51 N8        30.15R
SHELDON        SUNNY     82  64  54 VRB7G13   30.15R
SIOUX CITY     PTSUNNY   82  68  62 E12       30.06F
SPENCER        SUNNY     84  64  50 NW12G21   30.13R
STORM LAKE     MOSUNNY   82  72  69 N15       30.14R
$$

ABBREVIATIONS USED IN REMARKS
   TC - TEMPERATURE IN CELSIUS
  WCI - WIND CHILL INDEX
   HX - HEAT INDEX
  VSB - VISIBILITY




USA.gov is the U.S. government's official web portal to all federal, state and local government web resources and services.